TimeEDT,TemperatureF,Dew PointF,Humidity,Sea Level PressureIn,VisibilityMPH,Wind Direction,Wind SpeedMPH,Gust SpeedMPH,PrecipitationIn,Events,Conditions,WindDirDegrees,DateUTC
12:14 AM,26.6,13.8,59,30.27,10.0,NW,12.7,19.6,N/A,,Clear,320,2013-04-03 04:14:00
12:35 AM,26.6,14.2,60,30.27,10.0,NNW,13.8,19.6,N/A,,Clear,330,2013-04-03 04:35:00
12:54 AM,26.6,14.4,60,30.26,10.0,NW,10.4,18.4,N/A,,Clear,320,2013-04-03 04:54:00
1:14 AM,26.6,14.5,60,30.26,10.0,NW,10.4,-,N/A,,Clear,320,2013-04-03 05:14:00
1:34 AM,26.8,13.8,58,30.27,10.0,NW,10.4,18.4,N/A,,Clear,320,2013-04-03 05:34:00
1:54 AM,27.1,14.2,58,30.27,10.0,NW,9.2,18.4,N/A,,Clear,320,2013-04-03 05:54:00
2:14 AM,27.5,14.4,58,30.27,10.0,NW,12.7,17.3,N/A,,Clear,320,2013-04-03 06:14:00
2:34 AM,27.9,14.9,58,30.27,10.0,NNW,15.0,19.6,N/A,,Scattered Clouds,330,2013-04-03 06:34:00
2:55 AM,28.4,15.8,59,30.27,10.0,NW,15.0,21.9,N/A,,Mostly Cloudy,320,2013-04-03 06:55:00
3:14 AM,27.9,17.4,65,30.27,10.0,NNW,15.0,25.3,N/A,,Overcast,340,2013-04-03 07:14:00
3:35 AM,27.3,16.7,64,30.28,10.0,NNW,13.8,20.7,N/A,,Mostly Cloudy,340,2013-04-03 07:35:00
3:54 AM,26.6,13.8,59,30.28,10.0,NW,15.0,26.5,N/A,,Scattered Clouds,320,2013-04-03 07:54:00
4:15 AM,26.4,13.6,59,30.29,10.0,NNW,16.1,24.2,N/A,,Scattered Clouds,340,2013-04-03 08:15:00
4:34 AM,26.1,11.8,55,30.29,10.0,NNW,15.0,21.9,N/A,,Scattered Clouds,330,2013-04-03 08:34:00
4:54 AM,25.7,12.4,57,30.30,10.0,NNW,11.5,20.7,N/A,,Clear,340,2013-04-03 08:54:00
5:15 AM,26.1,12.9,58,30.30,10.0,NW,16.1,19.6,N/A,,Clear,320,2013-04-03 09:15:00
5:34 AM,25.9,13.8,60,30.31,10.0,NNW,12.7,20.7,N/A,,Clear,340,2013-04-03 09:34:00
5:55 AM,25.7,14.9,64,30.32,10.0,NW,13.8,20.7,N/A,,Scattered Clouds,320,2013-04-03 09:55:00
6:14 AM,25.5,15.3,65,30.33,10.0,NW,9.2,17.3,N/A,,Clear,320,2013-04-03 10:14:00
6:35 AM,25.5,14.9,64,30.33,10.0,NW,11.5,-,N/A,,Clear,320,2013-04-03 10:35:00
6:54 AM,25.5,15.8,67,30.34,10.0,NW,9.2,17.3,N/A,,Clear,320,2013-04-03 10:54:00
7:14 AM,25.7,16.9,69,30.34,10.0,NNW,11.5,17.3,N/A,,Scattered Clouds,330,2013-04-03 11:14:00
7:35 AM,26.2,18.0,71,30.35,10.0,NNW,12.7,18.4,N/A,,Mostly Cloudy,330,2013-04-03 11:35:00
7:54 AM,25.9,19.4,76,30.36,10.0,NNW,10.4,16.1,N/A,,Scattered Clouds,340,2013-04-03 11:54:00
8:15 AM,26.6,19.8,75,30.37,10.0,North,11.5,18.4,N/A,,Mostly Cloudy,350,2013-04-03 12:15:00
8:35 AM,27.0,19.9,75,30.38,10.0,NNW,11.5,-,N/A,,Mostly Cloudy,340,2013-04-03 12:35:00
8:54 AM,28.2,19.6,70,30.38,10.0,NNW,10.4,-,N/A,,Mostly Cloudy,340,2013-04-03 12:54:00
9:15 AM,27.7,18.3,68,30.39,10.0,NNW,11.5,16.1,N/A,,Clear,340,2013-04-03 13:15:00
9:34 AM,28.0,19.2,70,30.40,10.0,North,9.2,-,N/A,,Scattered Clouds,350,2013-04-03 13:34:00
9:55 AM,28.8,18.5,66,30.40,10.0,NNW,8.1,-,N/A,,Mostly Cloudy,340,2013-04-03 13:55:00
10:14 AM,27.5,16.7,64,30.40,10.0,NNW,9.2,-,N/A,,Scattered Clouds,340,2013-04-03 14:14:00
10:34 AM,29.7,17.2,60,30.42,10.0,NNW,9.2,-,N/A,,Clear,340,2013-04-03 14:34:00
10:55 AM,30.0,17.1,59,30.42,10.0,NNW,11.5,-,N/A,,Clear,340,2013-04-03 14:55:00
11:14 AM,30.7,17.2,57,30.42,10.0,North,9.2,-,N/A,,Clear,350,2013-04-03 15:14:00
11:34 AM,30.7,17.1,57,30.43,10.0,NNW,6.9,-,N/A,,Clear,330,2013-04-03 15:34:00
11:55 AM,30.7,16.9,56,30.43,10.0,WNW,6.9,-,N/A,,Clear,300,2013-04-03 15:55:00
12:14 PM,30.7,17.2,57,30.44,10.0,WNW,6.9,-,N/A,,Clear,290,2013-04-03 16:14:00
12:34 PM,32.2,18.1,56,30.45,10.0,West,5.8,-,N/A,,Clear,280,2013-04-03 16:34:00
12:55 PM,32.2,17.2,54,30.45,10.0,West,10.4,-,N/A,,Clear,270,2013-04-03 16:55:00
1:14 PM,32.9,16.9,52,30.44,10.0,WNW,11.5,-,N/A,,Scattered Clouds,290,2013-04-03 17:14:00
1:35 PM,32.7,15.6,49,30.45,10.0,West,10.4,16.1,N/A,,Clear,280,2013-04-03 17:35:00
1:55 PM,32.5,16.2,51,30.45,10.0,West,13.8,-,N/A,,Clear,270,2013-04-03 17:55:00
2:14 PM,33.4,16.3,50,30.44,10.0,West,11.5,-,N/A,,Clear,280,2013-04-03 18:14:00
2:35 PM,32.9,16.2,50,30.45,10.0,West,11.5,-,N/A,,Clear,270,2013-04-03 18:35:00
2:55 PM,33.6,17.1,51,30.45,10.0,West,13.8,20.7,N/A,,Clear,270,2013-04-03 18:55:00
3:14 PM,33.4,17.6,52,30.45,10.0,West,15.0,-,N/A,,Clear,280,2013-04-03 19:14:00
3:35 PM,33.1,17.8,53,30.44,10.0,West,11.5,18.4,N/A,,Clear,270,2013-04-03 19:35:00
3:54 PM,32.9,18.0,54,30.44,10.0,WNW,13.8,-,N/A,,Clear,290,2013-04-03 19:54:00
4:14 PM,33.6,18.1,53,30.44,10.0,West,9.2,18.4,N/A,,Clear,260,2013-04-03 20:14:00
4:35 PM,33.4,17.6,52,30.43,10.0,West,11.5,-,N/A,,Clear,270,2013-04-03 20:35:00
4:54 PM,34.0,17.4,51,30.42,10.0,West,9.2,-,N/A,,Clear,260,2013-04-03 20:54:00
5:14 PM,33.4,17.4,52,30.41,10.0,West,10.4,-,N/A,,Clear,270,2013-04-03 21:14:00
5:35 PM,33.4,18.1,54,30.40,10.0,West,6.9,-,N/A,,Clear,280,2013-04-03 21:35:00
5:54 PM,33.1,16.7,51,30.37,10.0,Calm,Calm,-,N/A,,Clear,0,2013-04-03 21:54:00
6:14 PM,33.3,17.2,52,30.37,10.0,Calm,Calm,-,N/A,,Clear,0,2013-04-03 22:14:00
6:35 PM,32.4,16.9,53,30.35,10.0,Calm,Calm,-,N/A,,Clear,0,2013-04-03 22:35:00
6:54 PM,32.2,17.4,55,30.34,10.0,East,3.5,-,N/A,,Clear,100,2013-04-03 22:54:00
7:15 PM,32.0,15.1,50,30.34,10.0,SE,4.6,-,N/A,,Clear,130,2013-04-03 23:15:00
7:35 PM,32.0,15.6,51,30.34,10.0,South,4.6,-,N/A,,Clear,170,2013-04-03 23:35:00
7:54 PM,31.8,15.4,51,30.34,10.0,South,4.6,-,N/A,,Clear,170,2013-04-03 23:54:00
8:15 PM,31.1,14.7,51,30.34,10.0,SSW,3.5,-,N/A,,Clear,200,2013-04-04 00:15:00
8:35 PM,30.0,16.7,58,30.34,10.0,SW,3.5,-,N/A,,Clear,220,2013-04-04 00:35:00
8:54 PM,29.3,17.1,60,30.34,10.0,SSW,3.5,-,N/A,,Clear,210,2013-04-04 00:54:00
9:15 PM,29.3,18.0,63,30.34,10.0,SSW,3.5,-,N/A,,Clear,200,2013-04-04 01:15:00
9:34 PM,29.1,18.5,65,30.33,10.0,SSW,3.5,-,N/A,,Clear,200,2013-04-04 01:34:00
9:55 PM,27.7,20.1,73,30.34,10.0,WSW,4.6,-,N/A,,Clear,240,2013-04-04 01:55:00
10:14 PM,28.2,20.3,72,30.33,10.0,SW,3.5,-,N/A,,Clear,220,2013-04-04 02:14:00
10:35 PM,28.9,20.7,71,30.32,10.0,Calm,Calm,-,N/A,,Clear,0,2013-04-04 02:35:00
10:55 PM,28.2,20.8,74,30.30,10.0,South,3.5,-,N/A,,Clear,170,2013-04-04 02:55:00
11:14 PM,27.9,21.2,76,30.30,10.0,Calm,Calm,-,N/A,,Clear,0,2013-04-04 03:14:00
11:35 PM,28.0,21.2,76,30.29,10.0,South,3.5,-,N/A,,Clear,180,2013-04-04 03:35:00
11:54 PM,27.9,21.0,75,30.28,10.0,South,3.5,-,N/A,,Clear,180,2013-04-04 03:54:00